| time (UTC) | temp F | wind direction | speed knots | gust knots | rain 1hr in | rain 24hr in | rain mn in | humidity % | barometer mb |
| 20260504223057 | 77 | 142 | 3.5 | 9.6 | 0.00 | 0.00 | 0.00 | 67 | 1009.0 |
| 20260504222556 | 77 | 210 | 1.7 | 14.8 | 0.00 | 0.00 | 0.00 | 67 | 1009.0 |
| 20260504222056 | 77 | 133 | 8.7 | 13.9 | 0.00 | 0.00 | 0.00 | 66 | 1009.0 |
| 20260504221556 | 77 | 156 | 2.6 | 6.1 | 0.00 | 0.00 | 0.00 | 66 | 1009.0 |
| 20260504221057 | 77 | 150 | 3.5 | 7.8 | 0.00 | 0.00 | 0.00 | 66 | 1009.0 |
| 20260504220556 | 77 | 129 | 7.0 | 9.6 | 0.00 | 0.00 | 0.00 | 66 | 1009.0 |
| 20260504220056 | 77 | 123 | 7.8 | 10.4 | 0.00 | 0.00 | 0.00 | 66 | 1009.0 |
| 20260504215556 | 77 | 126 | 7.8 | 9.6 | 0.00 | 0.00 | 0.00 | 66 | 1009.0 |
| 20260504215056 | 77 | 121 | 6.1 | 14.8 | 0.00 | 0.00 | 0.00 | 65 | 1009.0 |
| 20260504214556 | 77 | 142 | 7.0 | 11.3 | 0.00 | 0.00 | 0.00 | 65 | 1010.0 |
| 20260504214057 | 78 | 130 | 7.0 | 13.0 | 0.00 | 0.00 | 0.00 | 65 | 1010.0 |
| 20260504213558 | 78 | 176 | 0.0 | 4.3 | 0.00 | 0.00 | 0.00 | 64 | 1010.0 |
| 20260504213056 | 78 | 147 | 5.2 | 13.0 | 0.00 | 0.00 | 0.00 | 64 | 1010.0 |
| 20260504212556 | 78 | 131 | 7.0 | 7.8 | 0.00 | 0.00 | 0.00 | 63 | 1010.0 |
| 20260504212057 | 78 | 105 | 7.0 | 12.2 | 0.00 | 0.00 | 0.00 | 63 | 1010.0 |
| 20260504211556 | 79 | 119 | 6.1 | 13.9 | 0.00 | 0.00 | 0.00 | 63 | 1010.0 |
| 20260504211056 | 79 | 91 | 1.7 | 4.3 | 0.00 | 0.00 | 0.00 | 62 | 1010.0 |
| 20260504210556 | 79 | 169 | 0.9 | 7.0 | 0.00 | 0.00 | 0.00 | 62 | 1010.0 |
| 20260504210056 | 79 | 153 | 2.6 | 11.3 | 0.00 | 0.00 | 0.00 | 62 | 1010.0 |
| 20260504205556 | 79 | 149 | 4.3 | 5.2 | 0.00 | 0.00 | 0.00 | 61 | 1010.0 |
| 20260504205057 | 80 | 144 | 7.0 | 13.0 | 0.00 | 0.00 | 0.00 | 61 | 1010.0 |
| 20260504204556 | 79 | 200 | 0.0 | 13.0 | 0.00 | 0.00 | 0.00 | 62 | 1010.0 |
| 20260504204056 | 79 | 135 | 4.3 | 7.0 | 0.00 | 0.00 | 0.00 | 61 | 1010.0 |
| 20260504203556 | 80 | 121 | 7.0 | 12.2 | 0.00 | 0.00 | 0.00 | 60 | 1010.0 |
| 20260504203056 | 80 | 161 | 3.5 | 12.2 | 0.00 | 0.00 | 0.00 | 60 | 1010.0 |
| 20260504202556 | 79 | 151 | 3.5 | 9.6 | 0.00 | 0.00 | 0.00 | 61 | 1010.0 |
| 20260504202056 | 79 | 98 | 7.8 | 9.6 | 0.00 | 0.00 | 0.00 | 60 | 1010.0 |
| 20260504201557 | 79 | 115 | 5.2 | 7.8 | 0.00 | 0.00 | 0.00 | 61 | 1010.0 |
| 20260504201058 | 80 | 119 | 14.8 | 16.5 | 0.00 | 0.00 | 0.00 | 60 | 1010.0 |
| 20260504200556 | 79 | 167 | 2.6 | 13.0 | 0.00 | 0.00 | 0.00 | 61 | 1010.0 |
| 20260504200056 | 79 | 162 | 4.3 | 13.0 | 0.00 | 0.00 | 0.00 | 60 | 1010.0 |
| 20260504195558 | 79 | 108 | 8.7 | 13.0 | 0.00 | 0.00 | 0.00 | 59 | 1011.0 |
| 20260504195056 | 80 | 126 | 8.7 | 13.0 | 0.00 | 0.00 | 0.00 | 58 | 1011.0 |
| 20260504194556 | 80 | 161 | 0.0 | 7.0 | 0.00 | 0.00 | 0.00 | 58 | 1010.0 |
| 20260504194057 | 81 | 223 | 1.7 | 7.0 | 0.00 | 0.00 | 0.00 | 57 | 1011.0 |
| 20260504193556 | 80 | 150 | 7.0 | 9.6 | 0.00 | 0.00 | 0.00 | 59 | 1011.0 |
| 20260504193057 | 80 | 135 | 7.0 | 9.6 | 0.00 | 0.00 | 0.00 | 58 | 1011.0 |
| 20260504192556 | 80 | 148 | 3.5 | 11.3 | 0.00 | 0.00 | 0.00 | 58 | 1011.0 |
| 20260504192056 | 80 | 151 | 3.5 | 8.7 | 0.00 | 0.00 | 0.00 | 58 | 1011.0 |
| 20260504191557 | 80 | 140 | 6.1 | 11.3 | 0.00 | 0.00 | 0.00 | 59 | 1011.0 |
| 20260504191056 | 80 | 117 | 4.3 | 8.7 | 0.00 | 0.00 | 0.00 | 58 | 1011.0 |
| 20260504190556 | 80 | 129 | 0.9 | 11.3 | 0.00 | 0.00 | 0.00 | 58 | 1011.0 |
| 20260504190057 | 80 | 142 | 4.3 | 6.1 | 0.00 | 0.00 | 0.00 | 58 | 1012.0 |
| 20260504185557 | 80 | 253 | 2.6 | 8.7 | 0.00 | 0.00 | 0.00 | 57 | 1012.0 |
| 20260504185056 | 80 | 145 | 3.5 | 5.2 | 0.00 | 0.00 | 0.00 | 56 | 1012.0 |
| 20260504184556 | 80 | 180 | 1.7 | 7.8 | 0.00 | 0.00 | 0.00 | 57 | 1012.0 |
| 20260504184056 | 80 | 222 | 2.6 | 4.3 | 0.00 | 0.00 | 0.00 | 56 | 1012.0 |
| 20260504183556 | 79 | 125 | 9.6 | 11.3 | 0.00 | 0.00 | 0.00 | 57 | 1011.0 |
| 20260504183057 | 80 | 130 | 6.1 | 13.0 | 0.00 | 0.00 | 0.00 | 57 | 1012.0 |
| 20260504182557 | 80 | 124 | 3.5 | 3.5 | 0.00 | 0.00 | 0.00 | 57 | 1012.0 |
| 20260504182056 | 81 | 127 | 13.0 | 14.8 | 0.00 | 0.00 | 0.00 | 54 | 1012.0 |
| 20260504181556 | 80 | 214 | 2.6 | 7.8 | 0.00 | 0.00 | 0.00 | 55 | 1012.0 |
| 20260504181057 | 80 | 115 | 6.1 | 9.6 | 0.00 | 0.00 | 0.00 | 55 | 1012.0 |
| 20260504180557 | 80 | 144 | 3.5 | 7.8 | 0.00 | 0.00 | 0.00 | 56 | 1012.0 |
| 20260504180056 | 80 | 146 | 6.1 | 7.8 | 0.00 | 0.00 | 0.00 | 55 | 1012.0 |
| 20260504175556 | 80 | 123 | 6.1 | 8.7 | 0.00 | 0.00 | 0.00 | 56 | 1012.0 |
| 20260504175057 | 80 | 164 | 1.7 | 11.3 | 0.00 | 0.00 | 0.00 | 56 | 1012.0 |
| 20260504174556 | 80 | 157 | 1.7 | 15.6 | 0.00 | 0.00 | 0.00 | 55 | 1012.0 |
| 20260504174056 | 81 | 121 | 6.1 | 14.8 | 0.00 | 0.00 | 0.00 | 52 | 1012.0 |
| 20260504173556 | 81 | 193 | 0.9 | 6.1 | 0.00 | 0.00 | 0.00 | 53 | 1012.0 |
| 20260504173057 | 80 | 189 | 4.3 | 4.3 | 0.00 | 0.00 | 0.00 | 52 | 1012.0 |
| 20260504172556 | 80 | 174 | 5.2 | 6.1 | 0.00 | 0.00 | 0.00 | 52 | 1013.0 |
| 20260504172057 | 80 | 142 | 2.6 | 7.8 | 0.00 | 0.00 | 0.00 | 53 | 1012.0 |
| 20260504171557 | 80 | 177 | 3.5 | 10.4 | 0.00 | 0.00 | 0.00 | 54 | 1013.0 |
| 20260504171106 | 80 | 151 | 4.3 | 5.2 | 0.00 | 0.00 | 0.00 | 53 | 1013.0 |
| 20260504170556 | 79 | 159 | 2.6 | 8.7 | 0.00 | 0.00 | 0.00 | 55 | 1013.0 |
| 20260504151057 | 76 | 155 | 1.7 | 4.3 | 0.00 | 0.00 | 0.00 | 64 | 1014.0 |
| 20260504150557 | 76 | 143 | 8.7 | 12.2 | 0.00 | 0.00 | 0.00 | 63 | 1013.0 |
| 20260504141057 | 73 | 79 | 0.9 | 2.6 | 0.00 | 0.00 | 0.00 | 66 | 1013.0 |
| 20260504140600 | 73 | 112 | 2.6 | 5.2 | 0.00 | 0.00 | 0.00 | 66 | 1013.0 |
| 20260504130557 | 65 | 106 | 2.6 | 4.3 | 0.00 | 0.00 | 0.00 | 74 | 1013.0 |
| 20260504110558 | 57 | 65 | 0.9 | 1.7 | 0.00 | 0.00 | 0.00 | 89 | 1013.0 |
| 20260504100556 | 57 | 74 | 0.9 | 2.6 | 0.00 | 0.00 | 0.00 | 89 | 1013.0 |
| 20260504081556 | 58 | 36 | 0.9 | 1.7 | 0.00 | 0.00 | 0.00 | 85 | 1014.0 |
| 20260504081057 | 58 | 58 | 1.7 | 2.6 | 0.00 | 0.00 | 0.00 | 85 | 1014.0 |
| 20260504080556 | 58 | 85 | 1.7 | 2.6 | 0.00 | 0.00 | 0.00 | 85 | 1014.0 |
| 20260504050558 | 61 | 109 | 1.7 | 4.3 | 0.00 | 0.00 | 0.00 | 73 | 1016.0 |
| 20260504045556 | 62 | 156 | 2.6 | 3.5 | 0.00 | 0.00 | 0.00 | 73 | 1016.0 |
| 20260504045056 | 62 | 53 | 2.6 | 4.3 | 0.00 | 0.00 | 0.00 | 72 | 1016.0 |
| 20260504044556 | 62 | 86 | 2.6 | 4.3 | 0.00 | 0.00 | 0.00 | 71 | 1016.0 |
| 20260504044056 | 62 | 87 | 0.9 | 3.5 | 0.00 | 0.00 | 0.00 | 72 | 1016.0 |
| 20260504043556 | 62 | 120 | 1.7 | 3.5 | 0.00 | 0.00 | 0.00 | 71 | 1016.0 |
| 20260504043056 | 62 | 302 | 0.9 | 3.5 | 0.00 | 0.00 | 0.00 | 71 | 1016.0 |
| 20260504042557 | 63 | 79 | 0.9 | 1.7 | 0.00 | 0.00 | 0.00 | 70 | 1016.0 |
| 20260504042056 | 63 | 22 | 0.0 | 0.9 | 0.00 | 0.00 | 0.00 | 69 | 1016.0 |
| 20260504041556 | 63 | 89 | 0.0 | 0.0 | 0.00 | 0.00 | 0.00 | 68 | 1016.0 |
| 20260504041056 | 64 | 44 | 0.0 | 0.9 | 0.00 | 0.00 | 0.00 | 67 | 1016.0 |
| 20260504040556 | 64 | 102 | 0.9 | 0.9 | 0.00 | 0.00 | 0.00 | 66 | 1016.0 |
| 20260504040056 | 64 | 101 | 0.9 | 1.7 | 0.00 | 0.00 | 0.00 | 65 | 1016.0 |
| 20260504035556 | 64 | 102 | 1.7 | 1.7 | 0.00 | 0.00 | 0.00 | 65 | 1016.0 |
| 20260504035056 | 64 | 111 | 0.9 | 3.5 | 0.00 | 0.00 | 0.00 | 64 | 1016.0 |
| 20260504034556 | 65 | 103 | 0.9 | 1.7 | 0.00 | 0.00 | 0.00 | 64 | 1016.0 |
| 20260504034056 | 65 | 111 | 0.9 | 1.7 | 0.00 | 0.00 | 0.00 | 64 | 1016.0 |
| 20260504033556 | 65 | 106 | 1.7 | 2.6 | 0.00 | 0.00 | 0.00 | 64 | 1016.0 |
| 20260504033056 | 65 | 85 | 0.9 | 1.7 | 0.00 | 0.00 | 0.00 | 63 | 1016.0 |
| 20260504032557 | 66 | 91 | 0.9 | 1.7 | 0.00 | 0.00 | 0.00 | 63 | 1016.0 |
| 20260504032057 | 66 | 98 | 0.9 | 2.6 | 0.00 | 0.00 | 0.00 | 62 | 1016.0 |
| 20260504031556 | 66 | 133 | 1.7 | 2.6 | 0.00 | 0.00 | 0.00 | 62 | 1016.0 |
| 20260504031057 | 66 | 97 | 0.9 | 1.7 | 0.00 | 0.00 | 0.00 | 61 | 1016.0 |
| 20260504030557 | 67 | 81 | 0.0 | 2.6 | 0.00 | 0.00 | 0.00 | 61 | 1016.0 |
| 20260504030056 | 67 | 96 | 2.6 | 3.5 | 0.00 | 0.00 | 0.00 | 60 | 1016.0 |
| 20260504025556 | 67 | 117 | 2.6 | 2.6 | 0.00 | 0.00 | 0.00 | 60 | 1016.0 |
| 20260504025056 | 67 | 60 | 0.0 | 1.7 | 0.00 | 0.00 | 0.00 | 59 | 1016.0 |
| 20260504024557 | 68 | 111 | 0.9 | 2.6 | 0.00 | 0.00 | 0.00 | 59 | 1016.0 |
| 20260504024057 | 68 | 106 | 1.7 | 4.3 | 0.00 | 0.00 | 0.00 | 58 | 1016.0 |
| 20260504023558 | 68 | 118 | 2.6 | 3.5 | 0.00 | 0.00 | 0.00 | 59 | 1016.0 |
| 20260504023056 | 68 | 98 | 0.0 | 1.7 | 0.00 | 0.00 | 0.00 | 58 | 1016.0 |
| 20260504022557 | 68 | 106 | 0.9 | 5.2 | 0.00 | 0.00 | 0.00 | 58 | 1016.0 |
| 20260504022056 | 68 | 124 | 4.3 | 4.3 | 0.00 | 0.00 | 0.00 | 57 | 1016.0 |
| 20260504021556 | 68 | 123 | 4.3 | 4.3 | 0.00 | 0.00 | 0.00 | 57 | 1016.0 |
| 20260504021057 | 69 | 129 | 2.6 | 5.2 | 0.00 | 0.00 | 0.00 | 56 | 1016.0 |
| 20260504020557 | 69 | 179 | 1.7 | 4.3 | 0.00 | 0.00 | 0.00 | 56 | 1016.0 |
| 20260504020056 | 69 | 131 | 4.3 | 6.1 | 0.00 | 0.00 | 0.00 | 56 | 1016.0 |
| 20260504015557 | 69 | 115 | 1.7 | 4.3 | 0.00 | 0.00 | 0.00 | 55 | 1016.0 |
| 20260504015056 | 69 | 130 | 4.3 | 5.2 | 0.00 | 0.00 | 0.00 | 55 | 1016.0 |
| 20260504014556 | 69 | 126 | 4.3 | 4.3 | 0.00 | 0.00 | 0.00 | 55 | 1016.0 |
| 20260504014056 | 70 | 136 | 2.6 | 3.5 | 0.00 | 0.00 | 0.00 | 55 | 1016.0 |
| 20260504013556 | 70 | 131 | 3.5 | 5.2 | 0.00 | 0.00 | 0.00 | 54 | 1016.0 |
| 20260504013056 | 70 | 125 | 4.3 | 4.3 | 0.00 | 0.00 | 0.00 | 53 | 1016.0 |
| 20260504012556 | 71 | 164 | 0.0 | 3.5 | 0.00 | 0.00 | 0.00 | 53 | 1016.0 |
| 20260504012057 | 71 | 143 | 1.7 | 5.2 | 0.00 | 0.00 | 0.00 | 52 | 1016.0 |
| 20260504011556 | 71 | 127 | 1.7 | 5.2 | 0.00 | 0.00 | 0.00 | 52 | 1016.0 |
| 20260504011057 | 71 | 140 | 2.6 | 7.0 | 0.00 | 0.00 | 0.00 | 51 | 1016.0 |
| 20260504010556 | 71 | 145 | 2.6 | 7.0 | 0.00 | 0.00 | 0.00 | 50 | 1016.0 |
| 20260504010057 | 72 | 143 | 0.9 | 7.0 | 0.00 | 0.00 | 0.00 | 50 | 1016.0 |
| 20260504005556 | 72 | 138 | 2.6 | 6.1 | 0.00 | 0.00 | 0.00 | 48 | 1016.0 |
| 20260504005056 | 72 | 144 | 1.7 | 5.2 | 0.00 | 0.00 | 0.00 | 48 | 1015.0 |
| 20260504004556 | 73 | 131 | 3.5 | 6.1 | 0.00 | 0.00 | 0.00 | 47 | 1016.0 |
| 20260504004056 | 73 | 123 | 4.3 | 5.2 | 0.00 | 0.00 | 0.00 | 47 | 1015.0 |
| 20260504003556 | 73 | 130 | 2.6 | 5.2 | 0.00 | 0.00 | 0.00 | 46 | 1016.0 |
| 20260504003058 | 73 | 107 | 1.7 | 4.3 | 0.00 | 0.00 | 0.00 | 45 | 1015.0 |
| 20260504002556 | 74 | 131 | 1.7 | 4.3 | 0.00 | 0.00 | 0.00 | 45 | 1016.0 |
| 20260504002056 | 74 | 169 | 1.7 | 8.7 | 0.00 | 0.00 | 0.00 | 45 | 1015.0 |
| 20260504001556 | 75 | 138 | 1.7 | 5.2 | 0.00 | 0.00 | 0.00 | 44 | 1016.0 |
| 20260504001102 | 75 | 111 | 4.3 | 9.6 | 0.00 | 0.00 | 0.00 | 44 | 1016.0 |
| 20260504000556 | 75 | 195 | 2.6 | 4.3 | 0.00 | 0.00 | 0.00 | 43 | 1016.0 |
| 20260504000056 | 75 | 137 | 5.2 | 7.8 | 0.00 | 0.00 | 0.00 | 43 | 1016.0 |
| 20260503235556 | 75 | 195 | 2.6 | 7.0 | 0.00 | 0.00 | 0.00 | 42 | 1016.0 |
| 20260503235057 | 76 | 131 | 4.3 | 8.7 | 0.00 | 0.00 | 0.00 | 42 | 1016.0 |
| 20260503234556 | 76 | 162 | 2.6 | 7.8 | 0.00 | 0.00 | 0.00 | 43 | 1016.0 |
| 20260503234057 | 76 | 140 | 1.7 | 6.1 | 0.00 | 0.00 | 0.00 | 42 | 1016.0 |
| 20260503233556 | 77 | 171 | 2.6 | 9.6 | 0.00 | 0.00 | 0.00 | 41 | 1016.0 |
| 20260503233057 | 77 | 155 | 0.9 | 4.3 | 0.00 | 0.00 | 0.00 | 41 | 1016.0 |
| 20260503232556 | 77 | 164 | 1.7 | 5.2 | 0.00 | 0.00 | 0.00 | 41 | 1016.0 |
| 20260503232056 | 77 | 140 | 3.5 | 4.3 | 0.00 | 0.00 | 0.00 | 41 | 1016.0 |
| 20260503231557 | 77 | 234 | 0.9 | 2.6 | 0.00 | 0.00 | 0.00 | 41 | 1016.0 |
| 20260503231056 | 78 | 143 | 5.2 | 6.1 | 0.00 | 0.00 | 0.00 | 40 | 1016.0 |
| 20260503230556 | 78 | 164 | 0.0 | 5.2 | 0.00 | 0.00 | 0.00 | 40 | 1016.0 |
| 20260503230056 | 77 | 142 | 6.1 | 10.4 | 0.00 | 0.00 | 0.00 | 39 | 1016.0 |
| 20260503225556 | 77 | 99 | 2.6 | 4.3 | 0.00 | 0.00 | 0.00 | 39 | 1016.0 |
| 20260503225056 | 78 | 135 | 8.7 | 9.6 | 0.00 | 0.00 | 0.00 | 38 | 1016.0 |
| 20260503224556 | 78 | 163 | 1.7 | 8.7 | 0.00 | 0.00 | 0.00 | 40 | 1016.0 |
| 20260503224056 | 77 | 118 | 2.6 | 5.2 | 0.00 | 0.00 | 0.00 | 40 | 1016.0 |
| 20260503223556 | 77 | 122 | 6.1 | 8.7 | 0.00 | 0.00 | 0.00 | 39 | 1016.0 |